Location: Berg
(47.2344°N, 9.5296°E)
Time: 14:12:27
(UTC+00:00)

Cosmos 44 - Pass Details

Date: 10 May 2021
Orbit: 571 x 791 km, 65.1° (Epoch: 11 June)

Event Time Altitude Azimuth Distance (km) Brightness Sun altitude
Rises 21:05:20 0° 325° (NW) 3,297 8.5 -18.4°
Reaches altitude 10° 21:07:57 10° 333° (NNW) 2,363 7.3 -18.6°
Maximum altitude 21:13:04 39° 42° (NE) 1,157 4.5 -19.1°
Enters shadow 21:15:58 22° 97° (E) 1,636 4.9 -19.3°
